Retour au catalogue

FENGYUN 1C DEB

ActifSSO
NORAD 30175·DEBRIS·🇨🇳 China

Lancé May 10, 1999 depuis Taiyuan Satellite Launch Center

Loading…

Prochains Passages (prochaines 24 heures)

TLE

FraisSource: Space-Track

Époque: Sep 14, 2026, 03:45 UTC

1 30175U 99025UG  26257.15626424  .00000326  00000-0  30693-3 0  9998
2 30175  99.3468 317.2199 0145500 199.7149 187.0359 13.84089407991505

Suivez FENGYUN 1C DEB en temps réel avec AllMySat

Download on the App Store